Regional Weather Roundup
Issued by NWS Spokane, WA

Home | Current Version | Previous Version | Text Only | Print | Product List | Glossary On
Versions: 1 2 3 4 5 6 7 8 9 10 11 12 13 14 15 16 17 18 19 20 21 22 23 24 25 26 27 28 29 30 31 32 33 34 35 36 37 38 39 40 41 42 43 44 45 46 47 48 49 50
413
NZUS01 KOTX 141310
RWROTX
EASTERN WASHINGTON/NORTHERN IDAHO ROUNDUP
NATIONAL WEATHER SERVICE, SPOKANE WA
500 AM PST SUN FEB 14 2016

Note: "fair" indicated few or no clouds below 12,000 feet with no
significant weather and/or obstructions to visibility.

...NORTHEAST WASHINGTON AND NORTHERN IDAHO PANHANDLE...

CITY           SKY/WX    TMP DP  RH WIND       PRES   REMARKS
SPOKANE INTL   CLOUDY    38  36  92 SW8       30.05R
SPOKANE DOWNTO CLOUDY    41  36  82 SW5       30.07R
COEUR D ALENE  CLOUDY    39  36  87 SW10      30.03R
DEER PARK      CLOUDY    38  35  89 SW7       30.06R
SANDPOINT      CLOUDY    37  36  93 W8        30.04R
BONNERS FERRY  CLOUDY    36  32  87 SW12G20   29.99S

...SOUTHEAST WASHINGTON AND SOUTHERN IDAHO PANHANDLE...

CITY           SKY/WX    TMP DP  RH WIND       PRES   REMARKS
WALLA WALLA    CLOUDY    49  40  71 SW12      30.13F
PULLMAN/MOSCOW CLOUDY    42  37  82 W12       30.09R
LEWISTON       CLOUDY    42  37  82 NE5       30.08S
LOWELL           N/A     39  38  96 CALM      30.15S

...COLUMBIA BASIN...

CITY           SKY/WX    TMP DP  RH WIND       PRES   REMARKS
EPHRATA        CLOUDY    33  32  96 N5        30.05R WCI  29
MOSES LAKE     CLOUDY    39  35  86 S5        30.06R
TRI CITIES     CLOUDY    48  40  73 SW12      30.12R
HERMISTON      CLOUDY    45  40  82 S3        30.13F
PENDLETON      CLOUDY    43  39  86 S7        30.13F

...EAST SLOPES CASCADES...

CITY           SKY/WX    TMP DP  RH WIND       PRES   REMARKS
THE DALLES     LGT RAIN  43  41  93 CALM      30.18F
YAKIMA         CLOUDY    34  30  85 SW5       30.09R WCI  30
ELLENSBURG     CLOUDY    33  30  88 SE3       30.04F
WENATCHEE      CLOUDY    34  31  88 E5        30.03S WCI  30
OMAK           CLOUDY    36  32  85 NE3       30.06R

...SOUTHERN BRITISH COLUMBIA...

CITY           SKY/WX    TMP DP  RH WIND       PRES   REMARKS
PENTICTON      CLOUDY    41  36  81 S16       30.01F
CRANBROOK      PTCLDY    32  28  86 SE8       29.88S WCI  25

...WESTERN MONTANA...

CITY           SKY/WX    TMP DP  RH WIND       PRES   REMARKS
MISSOULA       CLOUDY    35  30  82 NE5       30.01S

...NEIGHBORING CITIES...

CITY           SKY/WX    TMP DP  RH WIND       PRES   REMARKS
SEATTLE        LGT RAIN  48  46  93 S10       30.11S
CALGARY        MOCLDY    34  18  51 CALM      29.66S



USA.gov is the U.S. government's official web portal to all federal, state and local government web resources and services.